Flag for Norway Weather past 2 weeks in Molde, Norway

Now
63 °F

Scattered clouds.


Feels Like: 63 °F
Forecast: 54 / 64 °F
Wind: 9 mph from Northeast

Location: Molde / Aro

Current Time: Aug 22, 2014 at 4:02:00 PM

Latest Report: Aug 22, 2014 at 3:20 PM


Visibility: N/A

Pressure: 29.65 "Hg

Humidity: 56%

Dew point: 46 °F

Location of MoldeLocation

Historic Weather in Molde — Graph

°F

Molde temperature yesterday

Maximum temperature yesterday: 57 °F (at 2:50 PM)
Minimum temperature yesterday: 50 °F (at 11:20 PM)
Average temperature yesterday: 54 °F

Past Weeks' High & Low Weather Summary

 TemperatureHumidityPressure
High79 °F (Aug 9, 1:50 PM)100% (Aug 8, 8:20 AM)29.98 "Hg (Aug 8, 8:20 AM)
Low50 °F (Aug 16, 4:50 AM)33% (Aug 12, 12:20 PM)29.21 "Hg (Aug 18, 7:20 AM)
Average61 °F73%29.54 "Hg
* Reported Aug 7 2:20 PM — Aug 22 2:50 PM, Molde, Weather by CustomWeather, © 2014

Note: Actual official high and low records may vary slightly from our data, if they occured in-between our weather recording intervals... More about our weather records

Advertising

Molde weather history for previous 24 hours

 ConditionsComfort  
Time TempWeatherWind HumidityBarometerVisibility
2:50 PM
Aug 22
64 °FScattered clouds.9 mph60%29.65 "HgN/A
2:20 PM63 °FScattered clouds.10 mph59%29.65 "HgN/A
1:50 PM63 °FScattered clouds.9 mph64%29.65 "HgN/A
1:20 PM63 °FScattered clouds.12 mph64%29.65 "HgN/A
12:50 PM63 °FScattered clouds.14 mph64%29.65 "HgN/A
12:20 PM63 °FScattered clouds.15 mph64%29.68 "HgN/A
11:50 AM61 °FScattered clouds.14 mph68%29.65 "HgN/A
11:20 AM61 °FScattered clouds.12 mph68%29.68 "HgN/A
10:50 AM59 °FScattered clouds.14 mph72%29.68 "HgN/A
10:20 AM57 °FScattered clouds.10 mph77%29.68 "HgN/A
9:50 AM57 °FScattered clouds.13 mph77%29.68 "HgN/A
9:20 AM57 °FScattered clouds.9 mph77%29.68 "HgN/A
8:50 AM54 °FScattered clouds.9 mph88%29.68 "HgN/A
8:20 AM54 °FScattered clouds.9 mph88%29.68 "HgN/A
7:50 AM50 °FScattered clouds.7 mph94%29.68 "HgN/A
7:20 AM50 °FPartly sunny.7 mph94%29.68 "HgN/A
6:50 AM50 °FPartly sunny.6 mph94%29.68 "HgN/A
6:20 AM50 °FPassing clouds.8 mph94%29.71 "HgN/A
5:50 AM50 °FPartly cloudy.5 mph94%29.71 "HgN/A
12:20 AM50 °FPassing clouds.7 mph88%29.71 "HgN/A
11:50 PM
Aug 21
50 °FPassing clouds.7 mph88%29.71 "HgN/A
11:20 PM50 °FPassing clouds.7 mph88%29.71 "HgN/A
10:50 PM54 °FPassing clouds.3 mph82%29.71 "HgN/A
9:50 PM54 °FBroken clouds.3 mph82%29.71 "HgN/A
9:20 PM54 °FBroken clouds.3 mph82%29.71 "HgN/A
8:50 PM54 °FScattered showers. Broken clouds.3 mph82%29.68 "HgN/A
8:20 PM55 °FBroken clouds.8 mph77%29.68 "HgN/A
7:50 PM55 °FBroken clouds.8 mph77%29.68 "HgN/A
7:20 PM55 °FBroken clouds.8 mph77%29.68 "HgN/A
6:50 PM57 °FScattered showers. Broken clouds.8 mph72%29.68 "HgN/A
6:20 PM57 °FScattered showers. Broken clouds.8 mph72%29.68 "HgN/A
5:50 PM57 °FScattered showers. Scattered clouds.8 mph72%29.68 "HgN/A
5:20 PM55 °FScattered showers. Broken clouds.9 mph82%29.68 "HgN/A
4:50 PM55 °FScattered showers. Broken clouds.9 mph82%29.68 "HgN/A
4:20 PM55 °FScattered showers. Broken clouds.12 mph88%29.68 "HgN/A
Weather by CustomWeather, © 2014

See weather overviewHow to use our weather pages